Torna al catalogo

STARLINK-3250

AttivoComunicazioniVLEO
NORAD 49749·PAYLOAD·🇺🇸 United States

Lanciato Dec 2, 2021 da Cape Canaveral Space Force Station

Loading…

Prossimi Passaggi (prossime 24 ore)

TLE

AggiornatoSource: CelesTrak SupGP

Epoca: Sep 15, 2026, 01:54 UTC

1 49749C 21115AB  26258.07965278  .00015874  00000+0  51056-3 0  2582
2 49749  53.1608   5.1015 0001058  82.0039 161.4930 15.31687765    10

Traccia STARLINK-3250 in tempo reale con AllMySat

Download on the App Store